Home > Time Zones > World Clock > Weather > Norway > Odda > Past weeks

Flag for Norway Weather past 2 weeks in Odda, Norway

Now
69 °F

Mild.


Feels Like: 69 °F
Forecast: 66 / 82 °F
Wind: 3 mph from South

Location: Midtlaeger

Current Time: Jul 26, 2014 at 1:44:45 PM

Latest Report: Jul 26, 2014 at 1:00 PM


Visibility: N/A

Pressure: 30.01 "Hg

Humidity: 39%

Dew point: 44 °F

Location of OddaLocation

Historic Weather in Odda — Graph

°F

Odda temperature yesterday

Maximum temperature yesterday: 69 °F (at 6:00 PM)
Minimum temperature yesterday: 56 °F (at 7:00 AM)
Average temperature yesterday: 61 °F

Past Weeks' High & Low Weather Summary

 TemperatureHumidityPressure
High75 °F (Jul 23, 6:00 PM)93% (Jul 15, 3:00 AM)30.35 "Hg (Jul 15, 3:00 AM)
Low44 °F (Jul 18, 6:00 AM)31% (Jul 23, 6:00 PM)29.63 "Hg (Jul 14, 7:00 AM)
Average57 °F66%30.04 "Hg
* Reported Jul 11 12:00 Noon — Jul 26 12:00 Noon, Odda, Weather by CustomWeather, © 2014

Note: Actual official high and low records may vary slightly from our data, if they occured in-between our weather recording intervals... More about our weather records

Advertising

Odda weather history for previous 24 hours

 ConditionsComfort  
Time TempWeatherWind HumidityBarometerVisibility
12:00 PM
Jul 26
67 °FMild.3 mph46%30.04 "HgN/A
11:00 AM65 °FMild.2 mph54%30.07 "HgN/A
10:00 AM64 °FMild.2 mph58%30.07 "HgN/A
9:00 AM63 °FMild.3 mph67%30.09 "HgN/A
8:00 AM60 °FCool.2 mph67%30.11 "HgN/A
7:00 AM57 °FCool.2 mph74%30.14 "HgN/A
6:00 AM56 °FCool.2 mph75%30.14 "HgN/A
5:00 AM57 °FCool.2 mph74%30.15 "HgN/A
4:00 AM58 °FCool.2 mph73%30.14 "HgN/A
3:00 AM57 °FCool.1 mph75%30.16 "HgN/A
2:00 AM59 °FCool.2 mph72%30.15 "HgN/A
1:00 AM58 °FCool.2 mph75%30.16 "HgN/A
12:00 AM58 °FCool.2 mph75%30.16 "HgN/A
11:00 PM
Jul 25
58 °FCool.1 mph76%30.16 "HgN/A
10:00 PM59 °FCool.2 mph77%30.15 "HgN/A
9:00 PM61 °FCool.5 mph65%30.14 "HgN/A
8:00 PM66 °FMild.6 mph51%30.10 "HgN/A
7:00 PM68 °FMild.3 mph46%30.08 "HgN/A
6:00 PM69 °FMild.1 mph43%30.08 "HgN/A
5:00 PM68 °FMild.2 mph46%30.10 "HgN/A
4:00 PM65 °FMild.1 mph51%30.14 "HgN/A
3:00 PM64 °FMild.No wind55%30.15 "HgN/A
2:00 PM63 °FMild.1 mph55%30.17 "HgN/A
1:00 PM62 °FRefreshingly cool.1 mph57%30.19 "HgN/A
Weather by CustomWeather, © 2014

See weather overviewHow to use our weather pages